This demonstration page uses our WeatherBlox Daily Observations layout. Learn more.

Left ArrowRight Arrow

Hourly Observations for January 11, 2022

Temp ( °F °C ) Dew Point ( °F °C ) Humidity (%) Winds ( mph kmh ) Pressure ( in mb ) Visibility ( mi km ) Precip ( " mm )
12:53 am 00:53 Clear 38 3.3 10 -12.2 31 31 Calm 30.53 1034 10 16 0.00 0.00
1:53 am 01:53 Clear 34 1.1 10 -12.2 37 37 NNE 5 7 30.51 1033 10 16 0.00 0.00
2:53 am 02:53 Mostly Clear 32 0 11 -11.7 41 41 NE 6 9 30.51 1033 10 16 0.00 0.00
3:53 am 03:53 Cloudy 35 1.7 12 -11.1 38 38 Calm 30.49 1033 10 16 0.00 0.00
4:53 am 04:53 Cloudy 36 2.2 12 -11.1 37 37 Calm 30.47 1032 10 16 0.00 0.00
5:53 am 05:53 Cloudy 37 2.8 13 -10.6 37 37 Calm 30.46 1031 10 16 0.00 0.00
6:53 am 06:53 Cloudy 38 3.3 14 -10 37 37 Calm 30.46 1032 10 16 0.00 0.00
7:53 am 07:53 Cloudy 38 3.3 13 -10.6 36 36 ENE 5 7 30.48 1032 10 16 0.00 0.00
8:53 am 08:53 Cloudy 40 4.4 13 -10.6 33 33 ESE 7 11 30.46 1032 10 16 0.00 0.00
9:53 am 09:53 Mostly Sunny 42 5.6 13 -10.6 30 30 SSE 12 19 30.46 1032 10 16 0.00 0.00
10:53 am 10:53 Sunny 48 8.9 16 -8.9 28 28 S 14 22 30.46 1031 10 16 0.00 0.00
11:53 am 11:53 Sunny 51 10.6 16 -8.9 25 25 SSE 14 22 30.43 1031 10 16 0.00 0.00
12:53 pm 12:53 Sunny 52 11.1 16 -8.9 24 24 SSE 8 13 30.38 1029 10 16 0.00 0.00
1:53 pm 13:53 Sunny 54 12.2 15 -9.4 21 21 SE 10 17 30.35 1028 10 16 0.00 0.00
2:53 pm 14:53 Sunny 54 12.2 16 -8.9 22 22 SSE 14 22 30.31 1026 10 16 0.00 0.00
3:53 pm 15:53 Sunny 56 13.3 17 -8.3 22 22 S 12 19 30.28 1025 10 16 0.00 0.00
4:53 pm 16:53 Sunny 55 12.8 16 -8.9 21 21 SSE 9 15 30.26 1025 10 16 0.00 0.00
5:53 pm 17:53 Sunny 53 11.7 16 -8.9 23 23 SE 8 13 30.26 1025 10 16 0.00 0.00
6:53 pm 18:53 Clear 49 9.4 16 -8.9 27 27 SE 9 15 30.27 1025 10 16 0.00 0.00
7:53 pm 19:53 Clear 46 7.8 17 -8.3 31 31 SE 9 15 30.29 1026 10 16 0.00 0.00
8:53 pm 20:53 Clear 45 7.2 18 -7.8 34 34 SE 10 17 30.29 1026 10 16 0.00 0.00
9:53 pm 21:53 Clear 42 5.6 18 -7.8 38 38 SE 9 15 30.30 1026 10 16 0.00 0.00
10:53 pm 22:53 Clear 41 5 19 -7.2 41 41 SE 8 13 30.31 1026 10 16 0.00 0.00
11:53 pm 23:53 Clear 40 4.4 20 -6.7 45 45 SE 8 13 30.29 1026 10 16 0.00 0.00

Powered by AerisWeather